Regional Weather Roundup
Issued by NWS

Home | Current Version | Previous Version | Graphics & Text | Print | Product List | Glossary On
Versions: 1 2 3 4 5 6 7 8 9 10 11 12 13 14 15 16 17 18 19 20 21 22 23 24 25 26 27 28 29 30 31 32 33 34 35 36 37 38 39 40 41 42 43 44 45 46 47 48 49
000
ASUS43 KDMX 212107
RWRIA

WEATHER ROUNDUP FOR IOWA
NATIONAL WEATHER SERVICE DES MOINES IA
300 PM CST FRI NOV 21 2014

NOTE: "FAIR" INDICATES FEW OR NO CLOUDS BELOW 12,000 FEET WITH NO
SIGNIFICANT WEATHER AND/OR OBSTRUCTIONS TO VISIBILITY.

* - THESE STATIONS ARE NOT NWS STATIONS...THUS NOT UNDER NWS
QUALITY CONTROL.  THEY ALSO DO NOT REPORT WEATHER SUCH
AS PRECIPITATION OR FOG.

IAZ001>003-012>014-020>022-031>034-043>046-212200-
   NORTHWEST IOWA

CITY           SKY/WX    TMP DP  RH WIND       PRES   REMARKS
CARROLL *      SUNNY     37  27  65 S17       30.06F WCI  28
CHEROKEE *     CLOUDY    36  27  69 S12       30.02F WCI  27
DENISON *      SUNNY     36  27  69 S9        30.04F WCI  29
LE MARS *      SUNNY     36  27  69 S14G23    30.00F WCI  27
ORANGE CITY *  SUNNY     36  27  69 S17       29.97F WCI  25
SHELDON *      SUNNY     34  27  75 S21G28    29.95F WCI  22
SIOUX CITY     CLOUDY    39  26  59 S14       30.02F WCI  31
SPENCER        PTSUNNY   33  25  72 S16       30.01F WCI  23
STORM LAKE *   SUNNY     34  27  75 S18       30.03F WCI  23
$$

IAZ055>058-069>071-079>083-090>094-212200-
   SOUTHWEST IOWA

CITY           SKY/WX    TMP DP  RH WIND       PRES   REMARKS
ATLANTIC *     SUNNY     39  27  60 S16       30.08F WCI  30
AUDUBON *      SUNNY     36  25  64 S13       30.08F WCI  27
CLARINDA *     CLOUDY    39  28  65 S8        30.12S WCI  34
COUNCIL BLFS * SUNNY     37  28  70 S15       30.05F WCI  28
CRESTON *      CLOUDY    36  27  69 SE15      30.11F WCI  26
HARLAN  *      SUNNY     37  28  70 S10G17    30.10F WCI  30
LAMONI         CLOUDY    37  25  61 SE12G18   30.13F WCI  29
RED OAK *      CLOUDY    39  27  60 SE10      30.09F WCI  32
SHENANDOAH *   CLOUDY    41  27  56 S10       30.10F
$$

IAZ047>049-059>061-072>074-084-212200-
   CENTRAL IOWA

CITY           SKY/WX    TMP DP  RH WIND       PRES   REMARKS
AMES           PTSUNNY   36  22  56 S16       30.12F WCI  26
ANKENY *       CLOUDY    37  23  56 S14G23    30.14F WCI  29
CHARITON *     CLOUDY    37  23  56 S13G20    30.15F WCI  29
DES MOINES     CLOUDY    38  23  55 S14       30.14F WCI  30
GRINNELL*      PTSUNNY   34  21  60 SE13      30.17F WCI  25
KNOXVILLE *    CLOUDY    36  19  51 S14       30.15F WCI  27
MARSHALLTOWN   MOSUNNY   32  20  61 S18       30.15F WCI  20
PELLA *        CLOUDY    36  21  55 SE13      30.18F WCI  27
PERRY *        PTSUNNY   37  27  65 S15       30.10F WCI  28
$$

IAZ004>006-015-016-023>025-035-036-212200-
   NORTH CENTRAL IOWA

CITY           SKY/WX    TMP DP  RH WIND       PRES   REMARKS
ALGONA *       SUNNY     32  23  69 S17G24    30.06F WCI  21
CLARION *      SUNNY     30  23  74 S16       30.10S WCI  19
ESTHERVILLE    PTSUNNY   29  22  75 S22       30.01F WCI  15
FORT DODGE *   PTSUNNY   32  21  64 S8        30.09F WCI  25
MASON CITY     MOSUNNY   29  21  72 S15       30.10F WCI  18
FOREST CITY *    N/A     30  25  80 S18       30.07F WCI  18
IOWA FALLS *     N/A     30  21  69 SE15G21   30.13F HAZE    WCI  19
$$

IAZ007>011-017>019-026>030-037>042-050>054-066-212200-
   NORTHEAST IOWA

CITY           SKY/WX    TMP DP  RH WIND       PRES   REMARKS
CEDAR RAPIDS   SUNNY     32  16  51 SE13      30.20F WCI  22
CHARLES CITY * SUNNY     28  18  64 S13       30.14F WCI  18
CLINTON *      SUNNY     36   7  30 S17       30.29F WCI  25
DECORAH *      SUNNY     28  12  50 S14G20    30.15F WCI  17
DUBUQUE        SUNNY     30  11  45 S17G23    30.23F WCI  18
MONTICELLO *   SUNNY     32  12  43 SE15G21   30.22F WCI  22
OELWEIN *      SUNNY     30  18  59 SE15      30.17F WCI  19
WATERLOO       MOSUNNY   30  19  63 SE17      30.16F WCI  18
$$

IAZ064-065-067-068-078-212200-
   EAST CENTRAL IOWA

CITY           SKY/WX    TMP DP  RH WIND       PRES   REMARKS
DAVENPORT      SUNNY     34   4  28 S15       30.26F WCI  24
IOWA CITY      SUNNY     35  15  44 SE16G22   30.24F WCI  25
MT. PLEASANT * MOSUNNY   34  16  47 SE14      30.24F WCI  24
MUSCATINE *    SUNNY     37   9  30 SE14G20   30.25F WCI  29
QUAD CITIES    SUNNY     36   5  27 SE13      30.26F WCI  27
$$

IAZ062-063-075>077-085>089-095>099-212200-
   SOUTHEAST IOWA

CITY           SKY/WX    TMP DP  RH WIND       PRES   REMARKS
BURLINGTON     MOSUNNY   37  12  35 S10       30.25F WCI  30
FAIRFIELD *    CLOUDY    36  16  44 SE15      30.22F WCI  26
FORT MADISON * MOSUNNY   37  14  38 SE12      30.26S WCI  30
KEOKUK *       MOSUNNY   37  16  41 SE14G20   30.24F WCI  29
OSKALOOSA *    CLOUDY    34  19  55 S14       30.20F WCI  24
CENTERVILLE *  CLOUDY    37  23  56 SE10      30.19F WCI  30
OTTUMWA        PTSUNNY   35  19  52 SE13      30.20S WCI  26
WASHINGTON *   SUNNY     36  16  44 S16G23    30.23S WCI  26
$$

ABBREVIATIONS USED IN REMARKS
   TC - TEMPERATURES IN CELSIUS
  WCI - WIND CHILL INDEX
   HX - HEAT INDEX
  VSB - VISIBILITY
$$



USA.gov is the U.S. government's official web portal to all federal, state and local government web resources and services.